When you browse on this site, cookies collect data to enhance your experience and personalize the content and advertising you see.
Visit our Privacy Policy to learn more. By continuing to use the site, you agree to this use of cookies and data.
  • Em Portugal
  • Lista de países
  • Para 7 dias
  • Temperatura da água
  • Mapas de satélite
  • Mapa do tempo
  • Widgets de tempo
  • user-avatar
    Iniciar Sessão

    Previsão horária em Faro

    Hoje, 26 Junho, Quarta-feira

    Tempo Temperatura Precipitação Vento Pressão Humidade
    00:00 +20°C° 0 mm 1 m/s 760 mmHg 97%
    01:00 +19°C° 0 mm 1 m/s 760 mmHg 97%
    02:00 +17°C° 0 mm 0 m/s 760 mmHg 97%
    03:00 +20°C° 0 mm 1 m/s 760 mmHg 96%
    04:00 +20°C° 0 mm 1 m/s 760 mmHg 96%
    05:00 +20°C° 0 mm 2 m/s 760 mmHg 95%
    06:00 +23°C° 0.1 mm 2 m/s 760 mmHg 88%
    07:00 +24°C° 0.1 mm 3 m/s 761 mmHg 80%
    08:00 +26°C° 0.1 mm 4 m/s 761 mmHg 73%
    09:00 +27°C° 0.1 mm 4 m/s 761 mmHg 66%
    10:00 +28°C° 0.1 mm 4 m/s 761 mmHg 59%
    11:00 +29°C° 0.1 mm 4 m/s 761 mmHg 52%
    12:00 +29°C° 0 mm 4 m/s 761 mmHg 51%
    13:00 +29°C° 0 mm 4 m/s 761 mmHg 50%
    14:00 +29°C° 0 mm 5 m/s 761 mmHg 49%
    15:00 +28°C° 0 mm 5 m/s 761 mmHg 50%
    16:00 +28°C° 0 mm 5 m/s 760 mmHg 51%
    17:00 +27°C° 0 mm 5 m/s 760 mmHg 53%
    18:00 +25°C° 0 mm 5 m/s 761 mmHg 64%
    19:00 +21°C° 0 mm 5 m/s 761 mmHg 75%
    20:00 +19°C° 0 mm 5 m/s 761 mmHg 87%
    21:00 +17°C° 0 mm 5 m/s 761 mmHg 89%
    22:00 +17°C° 0 mm 4 m/s 762 mmHg 91%
    23:00 +17°C° 0 mm 3 m/s 762 mmHg 93%

    Amanhã, 27 Junho, Quinta-feira

    Tempo Temperatura Precipitação Vento Pressão Humidade
    00:00 +16°C° 0 mm 3 m/s 761 mmHg 92%
    01:00 +16°C° 0 mm 3 m/s 761 mmHg 90%
    02:00 +16°C° 0 mm 3 m/s 761 mmHg 89%
    03:00 +16°C° 0 mm 3 m/s 761 mmHg 87%
    04:00 +16°C° 0 mm 3 m/s 761 mmHg 85%
    05:00 +16°C° 0 mm 2 m/s 761 mmHg 83%
    06:00 +19°C° 0 mm 2 m/s 762 mmHg 69%
    07:00 +24°C° 0 mm 2 m/s 762 mmHg 55%
    08:00 +27°C° 0 mm 2 m/s 762 mmHg 41%
    09:00 +29°C° 0 mm 3 m/s 762 mmHg 35%
    10:00 +32°C° 0 mm 4 m/s 762 mmHg 29%
    11:00 +34°C° 0 mm 5 m/s 762 mmHg 24%
    12:00 +34°C° 0 mm 6 m/s 762 mmHg 25%
    13:00 +34°C° 0 mm 7 m/s 761 mmHg 26%
    14:00 +34°C° 0 mm 8 m/s 761 mmHg 28%
    15:00 +32°C° 0 mm 8 m/s 761 mmHg 32%
    16:00 +31°C° 0 mm 8 m/s 761 mmHg 37%
    17:00 +28°C° 0 mm 8 m/s 760 mmHg 41%
    18:00 +26°C° 0 mm 7 m/s 761 mmHg 48%
    19:00 +23°C° 0 mm 6 m/s 761 mmHg 55%
    20:00 +21°C° 0 mm 5 m/s 761 mmHg 62%
    21:00 +20°C° 0 mm 5 m/s 761 mmHg 66%
    22:00 +19°C° 0 mm 5 m/s 761 mmHg 70%
    23:00 +19°C° 0 mm 5 m/s 762 mmHg 74%

    Depois de amanhã, 28 Junho, Sexta-feira

    Tempo Temperatura Precipitação Vento Pressão Humidade
    00:00 +19°C° 0 mm 5 m/s 761 mmHg 75%
    01:00 +19°C° 0 mm 5 m/s 761 mmHg 76%
    02:00 +17°C° 0 mm 5 m/s 760 mmHg 78%
    03:00 +18°C° 0 mm 4 m/s 760 mmHg 75%
    04:00 +19°C° 0 mm 4 m/s 760 mmHg 72%
    05:00 +19°C° 0 mm 4 m/s 760 mmHg 69%
    06:00 +21°C° 0 mm 3 m/s 760 mmHg 59%
    07:00 +25°C° 0 mm 3 m/s 760 mmHg 49%
    08:00 +28°C° 0 mm 2 m/s 760 mmHg 38%
    09:00 +31°C° 0 mm 2 m/s 760 mmHg 34%
    10:00 +35°C° 0 mm 2 m/s 760 mmHg 30%
    11:00 +38°C° 0 mm 2 m/s 760 mmHg 27%
    12:00 +38°C° 0 mm 3 m/s 759 mmHg 27%
    13:00 +38°C° 0 mm 3 m/s 759 mmHg 28%
    14:00 +37°C° 0 mm 4 m/s 758 mmHg 28%
    15:00 +36°C° 0 mm 4 m/s 758 mmHg 30%
    16:00 +35°C° 0 mm 5 m/s 758 mmHg 32%
    17:00 +34°C° 0 mm 5 m/s 757 mmHg 34%
    18:00 +30°C° 0 mm 5 m/s 758 mmHg 39%
    19:00 +28°C° 0 mm 5 m/s 758 mmHg 44%
    20:00 +25°C° 0 mm 5 m/s 758 mmHg 50%
    21:00 +23°C° 0 mm 5 m/s 758 mmHg 50%
    22:00 +23°C° 0 mm 5 m/s 759 mmHg 49%
    23:00 +22°C° 0 mm 5 m/s 759 mmHg 49%

    29 Junho, Sábado

    Tempo Temperatura Precipitação Vento Pressão Humidade
    00:00 +22°C° 0 mm 4 m/s 758 mmHg 51%
    01:00 +21°C° 0 mm 4 m/s 758 mmHg 52%
    02:00 +21°C° 0 mm 3 m/s 758 mmHg 53%
    03:00 +20°C° 0 mm 3 m/s 758 mmHg 54%
    04:00 +20°C° 0 mm 2 m/s 758 mmHg 55%
    05:00 +20°C° 0 mm 2 m/s 758 mmHg 56%
    06:00 +24°C° 0 mm 2 m/s 758 mmHg 48%
    07:00 +28°C° 0 mm 2 m/s 759 mmHg 41%
    08:00 +31°C° 0 mm 1 m/s 759 mmHg 33%
    09:00 +34°C° 0 mm 2 m/s 759 mmHg 32%
    10:00 +35°C° 0 mm 2 m/s 759 mmHg 31%
    11:00 +36°C° 0 mm 2 m/s 758 mmHg 30%
    12:00 +37°C° 0 mm 2 m/s 758 mmHg 29%
    13:00 +37°C° 0 mm 2 m/s 758 mmHg 28%
    14:00 +37°C° 0 mm 2 m/s 758 mmHg 28%
    15:00 +37°C° 0 mm 2 m/s 757 mmHg 28%
    16:00 +36°C° 0 mm 2 m/s 757 mmHg 30%
    17:00 +36°C° 0 mm 2 m/s 757 mmHg 32%
    18:00 +32°C° 0 mm 2 m/s 757 mmHg 40%
    19:00 +29°C° 0 mm 2 m/s 758 mmHg 48%
    20:00 +26°C° 0 mm 2 m/s 758 mmHg 56%
    21:00 +25°C° 0 mm 2 m/s 759 mmHg 58%
    22:00 +24°C° 0 mm 2 m/s 759 mmHg 60%
    23:00 +24°C° 0 mm 2 m/s 759 mmHg 62%

    30 Junho, Domingo

    Tempo Temperatura Precipitação Vento Pressão Humidade
    00:00 +23°C° 0 mm 2 m/s 759 mmHg 63%
    01:00 +23°C° 0 mm 2 m/s 759 mmHg 64%
    02:00 +21°C° 0 mm 2 m/s 759 mmHg 65%
    03:00 +21°C° 0 mm 2 m/s 759 mmHg 66%
    04:00 +21°C° 0 mm 2 m/s 759 mmHg 66%
    05:00 +21°C° 0 mm 2 m/s 759 mmHg 67%
    06:00 +25°C° 0 mm 2 m/s 760 mmHg 61%
    07:00 +27°C° 0 mm 2 m/s 760 mmHg 56%
    08:00 +30°C° 0 mm 2 m/s 761 mmHg 50%
    09:00 +32°C° 0 mm 2 m/s 761 mmHg 45%
    10:00 +35°C° 0 mm 2 m/s 761 mmHg 41%
    11:00 +37°C° 0 mm 3 m/s 761 mmHg 36%
    12:00 +36°C° 0 mm 3 m/s 760 mmHg 38%
    13:00 +36°C° 0 mm 3 m/s 760 mmHg 39%
    14:00 +35°C° 0 mm 3 m/s 760 mmHg 41%
    15:00 +35°C° 0 mm 3 m/s 760 mmHg 40%
    16:00 +35°C° 0 mm 4 m/s 760 mmHg 40%
    17:00 +34°C° 0 mm 4 m/s 760 mmHg 40%
    18:00 +30°C° 0 mm 4 m/s 760 mmHg 48%
    19:00 +28°C° 0 mm 3 m/s 761 mmHg 56%
    20:00 +25°C° 0 mm 3 m/s 761 mmHg 64%
    21:00 +24°C° 0 mm 3 m/s 761 mmHg 66%
    22:00 +22°C° 0 mm 3 m/s 761 mmHg 67%
    23:00 +21°C° 0 mm 3 m/s 761 mmHg 69%

    1 Julho, Segunda-feira

    Tempo Temperatura Precipitação Vento Pressão Humidade
    00:00 +21°C° 0 mm 3 m/s 761 mmHg 71%
    01:00 +20°C° 0 mm 2 m/s 761 mmHg 73%
    02:00 +19°C° 0 mm 2 m/s 761 mmHg 75%
    03:00 +19°C° 0 mm 2 m/s 761 mmHg 78%
    04:00 +18°C° 0 mm 3 m/s 761 mmHg 81%
    05:00 +18°C° 0 mm 3 m/s 761 mmHg 84%
    06:00 +21°C° 0 mm 2 m/s 761 mmHg 71%
    07:00 +25°C° 0 mm 2 m/s 761 mmHg 58%
    08:00 +29°C° 0 mm 2 m/s 761 mmHg 44%
    09:00 +31°C° 0 mm 3 m/s 761 mmHg 39%
    10:00 +34°C° 0 mm 4 m/s 761 mmHg 34%
    11:00 +37°C° 0 mm 4 m/s 761 mmHg 28%
    12:00 +37°C° 0 mm 5 m/s 761 mmHg 27%
    13:00 +39°C° 0 mm 5 m/s 761 mmHg 26%
    14:00 +39°C° 0 mm 6 m/s 760 mmHg 25%
    15:00 +36°C° 0 mm 6 m/s 760 mmHg 30%
    16:00 +33°C° 0 mm 7 m/s 760 mmHg 35%
    17:00 +30°C° 0 mm 7 m/s 760 mmHg 39%
    18:00 +27°C° 0 mm 6 m/s 760 mmHg 52%
    19:00 +23°C° 0 mm 6 m/s 760 mmHg 64%
    20:00 +20°C° 0 mm 5 m/s 761 mmHg 76%
    21:00 +19°C° 0 mm 5 m/s 760 mmHg 80%
    22:00 +19°C° 0 mm 5 m/s 760 mmHg 84%
    23:00 +18°C° 0 mm 4 m/s 760 mmHg 88%
    Mostrar mais